Newark, NJ

12:03 AM EDT on June 29, 2017 (GMT -0400)
Newark International

Weather History for KEWR - January, 2013

Change the Weather History Date:

Thursday, January 10, 2013

  Actual Average Record
Temperature  
Mean Temperature 44 °F 32 °F  
Max Temperature 50 °F 39 °F 65 °F (2016)
Min Temperature 37 °F 24 °F 0 °F (1982)
Degree Days  
Heating Degree Days 21 34  
Month to date heating degree days 280 330  
Since 1 July heating degree days 1889 2080  
Cooling Degree Days 0 0  
Month to date cooling degree days 0 0  
Year to date cooling degree days 0 0  
Moisture  
Dew Point 25 °F    
Average Humidity 51    
Maximum Humidity 70    
Minimum Humidity 32    
Precipitation  
Precipitation 0.00 in 0.12 in 1.78 in (2016)
Month to date precipitation T 1.18  
Year to date precipitation T 1.18  
Snow  
Snow 0.00 in 0.30 in 7.70 in (1965)
Month to date snowfall T 2.5  
Since 1 July snowfall 8.5 8.3  
Snow Depth 0.00 in    
Sea Level Pressure  
Sea Level Pressure 30.45 in    
Wind  
Wind Speed 9 mph (NW)    
Max Wind Speed 24 mph    
Max Gust Speed 30 mph    
Visibility 10 miles    
Events      
T = Trace of Precipitation, MM = Missing Value Source: NWS Daily Summary

Daily Weather History Graph

Daily Weather History Graph

Search for Another Location

Airport or City:

Trip Planner

Search our weather history database for the weather conditions in past years. The results will help you decide how hot, cold, wet, or windy it might be!

Date:

Astronomy

Jan. 10, 2013 Rise Set
Actual Time 7:20 AM EST 4:48 PM EST
Civil Twilight 6:49 AM EST 5:19 PM EST
Nautical Twilight 6:15 AM EST 5:53 PM EST
Astronomical Twilight 5:42 AM EST 6:26 PM EST
Moon 5:57 AM EST (1/10) 3:53 PM EST (1/10)
Length of Visible Light 10h 29m
Length of Day
9h 28m
Waning Crescent, 2% of the Moon is Illuminated
Jan 10
Waning Crescent
Jan 11
New
Jan 18
First Quarter
Jan 26
Full
Feb 3
Last Quarter

Hourly Weather History & Observations

Time (EST) Temp. Windchill Dew Point Humidity Pressure Visibility Wind Dir Wind Speed Gust Speed Precip Events Conditions
12:51 AM 41.0 °F 35.8 °F 32.0 °F 70% 30.26 in 10.0 mi SW 8.1 mph - N/A   Clear
1:51 AM 39.0 °F 32.8 °F 30.0 °F 70% 30.30 in 10.0 mi SSW 9.2 mph - N/A   Clear
2:51 AM 39.0 °F 34.0 °F 28.9 °F 67% 30.33 in 10.0 mi SW 6.9 mph - N/A   Clear
3:51 AM 39.2 °F 35.0 °F 26.6 °F 61% 30.35 in 10.0 mi West 5.8 mph - N/A   Clear
4:51 AM 41.0 °F 36.4 °F 26.6 °F 57% 30.37 in 10.0 mi NW 6.9 mph - N/A   Clear
5:51 AM 41.0 °F 33.9 °F 26.1 °F 55% 30.39 in 10.0 mi WNW 12.7 mph 20.7 mph N/A   Clear
6:51 AM 39.2 °F 34.2 °F 24.8 °F 56% 30.42 in 10.0 mi West 6.9 mph 17.3 mph N/A   Partly Cloudy
7:51 AM 41.0 °F 36.4 °F 25.0 °F 53% 30.46 in 10.0 mi NNW 6.9 mph - N/A   Mostly Cloudy
8:51 AM 43.0 °F 38.2 °F 25.0 °F 49% 30.48 in 10.0 mi NNW 8.1 mph - N/A   Scattered Clouds
9:51 AM 45.0 °F 37.6 °F 23.0 °F 42% 30.50 in 10.0 mi NW 17.3 mph 26.5 mph N/A   Mostly Cloudy
10:51 AM 45.0 °F 39.3 °F 21.9 °F 40% 30.50 in 10.0 mi NW 11.5 mph - N/A   Mostly Cloudy
11:51 AM 46.9 °F - 21.9 °F 37% 30.48 in 10.0 mi NNW 13.8 mph 23.0 mph N/A   Mostly Cloudy
12:51 PM 48.9 °F - 21.9 °F 35% 30.46 in 10.0 mi NW 15.0 mph 20.7 mph N/A   Mostly Cloudy
1:51 PM 50.0 °F - 21.9 °F 33% 30.46 in 10.0 mi NW 12.7 mph 18.4 mph N/A   Mostly Cloudy
2:51 PM 50.0 °F - 21.9 °F 33% 30.48 in 10.0 mi WNW 11.5 mph 19.6 mph N/A   Mostly Cloudy
3:51 PM 48.9 °F - 21.0 °F 33% 30.49 in 10.0 mi NNW 10.4 mph - N/A   Mostly Cloudy
4:51 PM 46.9 °F - 21.9 °F 37% 30.50 in 10.0 mi NW 8.1 mph - N/A   Mostly Cloudy
5:51 PM 46.0 °F 41.9 °F 21.9 °F 39% 30.52 in 10.0 mi NW 8.1 mph - N/A   Mostly Cloudy
6:51 PM 45.0 °F 41.2 °F 23.0 °F 42% 30.53 in 10.0 mi NNW 6.9 mph - N/A   Scattered Clouds
7:51 PM 44.1 °F 41.5 °F 23.0 °F 43% 30.53 in 10.0 mi NNW 4.6 mph - N/A   Mostly Cloudy
8:51 PM 44.1 °F 40.1 °F 23.0 °F 43% 30.54 in 10.0 mi NNW 6.9 mph - N/A   Mostly Cloudy
9:51 PM 41.0 °F 35.8 °F 25.0 °F 53% 30.52 in 10.0 mi North 8.1 mph - N/A   Mostly Cloudy
10:51 PM 39.0 °F 33.4 °F 25.0 °F 57% 30.54 in 10.0 mi NNE 8.1 mph - N/A   Mostly Cloudy
11:51 PM 39.9 °F - 24.1 °F 53% 30.55 in 10.0 mi Calm Calm - N/A   Mostly Cloudy